Regional Weather Roundup
Issued by NWS

Home | Current Version | Previous Version | Graphics & Text | Print | Product List | Glossary On
Versions: 1 2 3 4 5 6 7 8 9 10 11 12 13 14 15 16 17 18 19 20 21 22 23 24 25 26 27 28 29 30 31 32 33 34 35 36 37 38 39 40 41 42 43 44 45 46 47 48 49 50
000
ASUS43 KDMX 191306
RWRIA

WEATHER ROUNDUP FOR IOWA
NATIONAL WEATHER SERVICE DES MOINES IA
700 AM CST FRI JAN 19 2018

NOTE: "FAIR" INDICATES FEW OR NO CLOUDS BELOW 12,000 FEET WITH NO
SIGNIFICANT WEATHER AND/OR OBSTRUCTIONS TO VISIBILITY.

* - THESE STATIONS ARE NOT NWS STATIONS...THUS NOT UNDER NWS
QUALITY CONTROL.  THEY ALSO DO NOT REPORT WEATHER SUCH
AS PRECIPITATION OR FOG.

IAZ001>003-012>014-020>022-031>034-043>046-191400-
   NORTHWEST IOWA

CITY           SKY/WX    TMP DP  RH WIND       PRES   REMARKS
CARROLL *      CLOUDY    32  25  74 S20       29.71F WCI  20
CHEROKEE *     CLOUDY    27  25  94 S3        29.68R
DENISON *      CLOUDY    32  25  74 S12       29.74S WCI  23
LE MARS *      CLOUDY    28  25  86 S9        29.66S WCI  20
ORANGE CITY *  CLOUDY    30  27  86 S8        29.64F WCI  23
SHELDON *      CLOUDY    28  27  93 S7        29.62F WCI  21
SIOUX CITY     CLOUDY    27  24  89 SE10      29.68S WCI  17
SPENCER        CLOUDY    26  22  84 S8        29.65F WCI  18
STORM LAKE *   CLOUDY    28  23  80 S12       29.67S WCI  18
$$

IAZ055>058-069>071-079>083-090>094-191400-
   SOUTHWEST IOWA

CITY           SKY/WX    TMP DP  RH WIND       PRES   REMARKS
ATLANTIC *     CLOUDY    30  25  80 S12       29.78F WCI  21
AUDUBON *      CLOUDY    32  25  74 S15       29.76F WCI  22
CLARINDA *     CLOUDY    28  23  80 S8          N/A  WCI  20
COUNCIL BLFS * CLOUDY    36  27  69 S15       29.76F WCI  26
CRESTON *      CLOUDY    32  23  69 SW15      29.83S WCI  22
HARLAN  *      CLOUDY    30  27  86 S13       29.78F WCI  20
LAMONI         CLOUDY    30  20  66 S14       29.86R WCI  19
RED OAK *      CLOUDY    32  25  74 S9        29.81F WCI  24
SHENANDOAH *   CLOUDY    34  25  69 S10       29.83S WCI  26
$$

IAZ047>049-059>061-072>074-084-191400-
   CENTRAL IOWA

CITY           SKY/WX    TMP DP  RH WIND       PRES   REMARKS
AMES           PTCLDY    28  24  85 S6        29.76F WCI  22
ANKENY *       MOCLDY    32  23  69 S8        29.80F WCI  25
BOONE *        CLOUDY    32  25  74 SW12G18   29.74F WCI  23
CHARITON *     CLOUDY    32  21  64 SW13      29.83F WCI  22
DES MOINES     CLOUDY    34  23  64 SW10      29.80F WCI  26
GRINNELL*      CLOUDY    30  22  74 SW12      29.83S WCI  20
KNOXVILLE *    PTCLDY    32  21  64 SW16      29.81S WCI  21
MARSHALLTOWN   CLOUDY    30  23  75 S10       29.78S WCI  21
NEWTON *       CLOUDY    30  23  74 S14       29.81F WCI  20
PELLA *        PTCLDY    32  22  65 SW9       29.84S WCI  25
PERRY *          N/A     29  25  82 S7        29.76F WCI  22
$$

IAZ004>006-015-016-023>025-035-036-191400-
   NORTH CENTRAL IOWA

CITY           SKY/WX    TMP DP  RH WIND       PRES   REMARKS
ALGONA *       CLOUDY    25 N/A N/A S16       29.67F WCI  12
CLARION *      CLOUDY    25  25 100 S12       29.73S WCI  14
ESTHERVILLE    CLOUDY    23  22  96 S10       29.64F WCI  12
FORT DODGE *   CLOUDY    28  23  81 S8        29.73R WCI  20
MASON CITY     CLOUDY    27  21  78 S10       29.71F WCI  17
FOREST CITY *    N/A     28  25  86 S9        29.70S WCI  20
WEBSTER CITY * CLOUDY    23  19  86 S8        29.72S WCI  14
IOWA FALLS *     N/A     27  23  84 S8        29.76S WCI  19
$$

IAZ007>011-017>019-026>030-037>042-050>054-066-191400-
   NORTHEAST IOWA

CITY           SKY/WX    TMP DP  RH WIND       PRES   REMARKS
CEDAR RAPIDS     N/A     27  20  75 S8        29.83R WCI  19
CHARLES CITY * CLOUDY    23  25 100 S9        29.74F WCI  13
CLINTON *        N/A     26  21  81 SW12      29.89R WCI  16
DECORAH *        N/A     27  23  86 SW8       29.73F WCI  18
DUBUQUE          N/A     24  18  77 S13       29.80F WCI  12
MONTICELLO *     N/A     25  19  80 S12       29.82F WCI  14
OELWEIN *        N/A     23  23 100 S12       29.78S WCI  12
WATERLOO         N/A     25  20  81 S6        29.78S WCI  18
$$

IAZ064-065-067-068-078-191400-
   EAST CENTRAL IOWA

CITY           SKY/WX    TMP DP  RH WIND       PRES   REMARKS
DAVENPORT        N/A     31  19  61 S14       29.89F WCI  21
IOWA CITY        N/A     28  19  69 S6        29.88S WCI  22
MT. PLEASANT * CLOUDY    30  19  64 SW13      29.90S WCI  20
MUSCATINE *      N/A     28  19  69 S12       29.90S WCI  18
QUAD CITIES      N/A     30  20  66 SW10      29.88F WCI  21
$$

IAZ062-063-075>077-085>089-095>099-191400-
   SOUTHEAST IOWA

CITY           SKY/WX    TMP DP  RH WIND       PRES   REMARKS
BURLINGTON     CLOUDY    28  18  66 S10       29.91F WCI  19
FAIRFIELD *    CLOUDY    30  19  64 S9        29.87S WCI  22
FORT MADISON * CLOUDY    30  19  64 S12       29.92F WCI  21
KEOKUK *       CLOUDY    30  19  64 S15G22    29.92F WCI  19
OSKALOOSA *      N/A     31  22  68 SW13      29.85S WCI  21
OTTUMWA        CLOUDY    32  20  61 S13       29.85F WCI  22
WASHINGTON *   CLOUDY    27  21  80 S12       29.88F WCI  16
$$

ABBREVIATIONS USED IN REMARKS
   TC - TEMPERATURES IN CELSIUS
  WCI - WIND CHILL INDEX
   HX - HEAT INDEX
  VSB - VISIBILITY
$$





USA.gov is the U.S. government's official web portal to all federal, state and local government web resources and services.